EHI
3 3 2 2 4 8 12 12 11 11 11 11 10 8 5 3 3 4 5 6 4 3 4 4 4 4 4 4 3 1 0 0 0 0 0 1 2 3 4 3 3 3 3
4 3 3 4 6 10 13 13 12 12 12 11 11 10 7 5 4 5 7 7 6 5 5 6 5 5 4 4 3 1 1 0 0 0 0 1 3 4 4 4 4 3 3
5 5 5 7 9 10 12 13 14 14 14 13 12 11 11 9 7 8 9 8 7 6 6 6 6 6 5 4 4 3 2 1 0 1 1 1 3 4 4 5 5 4 3
6 7 8 9 9 8 9 13 16 18 18 16 14 14 14 13 11 11 10 8 6 5 4 4 5 6 5 5 5 5 5 4 3 2 3 4 5 6 6 6 5 4 4
8 8 8 8 8 6 7 11 17 20 21 20 18 17 16 15 13 13 11 8 5 3 3 4 5 5 5 6 6 7 8 8 7 6 6 7 8 8 7 5 5 5 5
7 7 8 8 7 5 6 9 14 19 21 20 18 17 16 15 16 15 12 8 5 4 5 5 6 6 6 6 7 8 9 10 10 10 10 11 10 8 7 6 5 4 3
8 8 9 9 6 5 5 6 10 15 18 18 16 15 15 16 17 17 14 10 7 6 7 6 6 6 6 7 8 9 9 9 10 12 13 14 12 9 7 5 4 3 1
11 11 10 9 6 4 4 5 8 13 16 16 16 16 16 15 17 18 15 11 8 7 8 7 6 6 5 6 8 8 7 7 8 9 12 13 12 9 7 5 3 1 1
14 13 11 8 7 6 6 6 8 11 14 15 16 16 17 17 19 20 18 14 11 10 9 9 7 5 5 6 7 7 6 6 5 5 6 8 9 8 8 7 5 3 2
15 14 11 8 7 8 9 8 8 10 12 14 15 16 18 20 21 22 23 21 18 14 13 11 9 7 6 7 7 6 5 4 4 3 2 3 5 8 10 11 9 7 7
14 12 10 8 9 9 10 11 11 11 14 17 17 18 20 21 21 23 25 25 23 19 15 12 10 8 7 7 7 6 5 5 4 2 1 1 4 8 11 12 12 12 12
12 11 10 10 11 11 12 14 14 14 17 21 23 22 21 20 19 21 22 23 23 21 17 13 11 7 6 6 6 7 6 5 4 3 1 1 2 6 9 11 13 14 14
14 14 13 14 15 15 16 16 16 18 21 24 26 26 23 20 19 18 19 20 20 19 17 14 11 7 5 5 6 6 6 5 4 3 2 0 1 3 5 8 10 12 12
17 16 15 17 17 17 17 17 16 18 20 23 24 24 22 20 18 18 17 17 16 15 15 13 10 7 6 6 6 6 5 4 3 3 2 1 1 1 2 4 7 9 9
16 14 13 16 18 18 18 17 17 17 17 18 19 19 19 18 17 16 14 12 11 11 12 13 11 8 7 6 5 4 4 3 3 3 3 2 2 2 2 3 4 6 7
12 11 12 15 18 19 19 19 19 18 17 17 18 18 18 17 16 14 12 10 9 8 9 11 11 8 5 4 2 1 1 2 3 4 4 3 3 3 2 2 2 3 4
11 12 15 17 18 18 19 19 19 19 20 19 17 16 15 15 14 14 12 11 9 7 7 8 9 7 5 2 0 0 0 1 2 4 4 4 4 5 5 4 3 4 5
12 14 18 19 17 17 16 16 17 18 19 17 13 11 9 9 11 12 10 10 9 7 6 6 6 7 5 2 0 0 0 1 3 4 5 5 6 7 8 8 8 8 9
12 14 17 17 18 16 13 13 14 14 14 12 8 6 4 6 9 10 9 9 8 6 5 3 3 5 5 3 1 0 1 2 3 4 5 5 6 7 8 9 9 9 9
10 12 14 16 18 16 12 11 11 10 9 7 4 3 3 4 7 9 10 10 8 6 5 4 3 3 3 2 1 0 2 4 5 4 4 5 5 4 4 6 7 7 6
9 10 12 16 17 15 13 11 9 6 4 2 2 2 2 2 4 6 7 8 7 5 6 6 5 4 3 2 1 1 3 5 6 5 6 6 5 2 1 2 4 4 4
11 11 12 13 14 13 12 11 8 5 2 0 0 1 1 2 3 3 4 5 4 3 3 5 5 5 4 4 3 1 2 4 5 5 6 6 5 1 0 0 1 1 1
12 11 9 8 8 8 8 9 8 6 3 1 1 2 3 3 3 3 3 4 3 1 2 3 4 5 6 6 4 2 1 1 3 4 4 3 2 0 0 0 0 1 2
10 8 5 3 4 5 5 6 6 6 4 3 3 4 4 4 4 4 4 4 3 2 1 2 2 3 4 5 4 2 1 1 1 2 3 2 2 2 3 3 3 4 6
7 6 2 2 4 4 4 5 4 4 4 3 3 3 3 3 5 5 5 5 4 2 2 2 2 2 1 2 1 1 1 0 0 1 3 4 5 6 6 7 7 8 9
6 5 3 2 3 4 4 4 4 3 3 3 3 3 3 3 5 6 6 5 4 2 1 1 2 2 1 0 0 0 0 0 0 1 3 4 5 7 8 8 9 10 10
Wind_Speed
5 5 4 4 3 3 2 1 1 2 1 1 1 1 1 2 2 2 3 2 2 2 1 2 2 1 2 2 2 1 1 0 1 1 1 2 2 2 1 0 1 0 0
6 5 5 4 4 3 3 2 2 2 1 1 1 1 1 1 1 2 3 2 2 2 1 2 1 2 1 1 1 1 1 1 1 2 2 1 3 2 2 1 1 0 0
6 6 5 4 4 3 3 2 2 2 1 1 1 1 1 1 1 1 1 1 1 1 2 2 2 2 1 2 1 1 1 2 1 2 3 2 1 0 2 1 0 1 1
7 7 6 5 4 4 3 3 2 2 2 2 2 1 1 0 1 0 1 1 1 1 1 1 1 1 1 1 1 2 1 2 1 0 1 2 3 3 0 2 1 1 0
7 7 6 5 4 4 3 3 3 2 2 2 2 2 2 1 1 1 1 0 1 0 0 0 1 1 1 1 2 2 3 2 2 2 1 1 1 3 3 2 1 1 1
7 7 6 5 5 4 4 3 3 3 3 3 3 2 2 1 1 1 0 1 1 1 0 0 1 1 1 1 1 2 2 3 3 3 2 2 2 2 2 3 3 2 1
7 7 7 6 5 4 4 4 4 3 3 3 3 3 3 3 2 2 1 1 1 0 1 1 1 2 1 1 1 1 2 2 2 3 3 2 2 3 3 4 3 3 2
6 6 6 5 5 5 4 4 4 3 3 3 2 2 3 3 2 2 2 1 1 1 1 0 1 1 2 1 1 1 1 1 2 3 3 3 2 2 3 3 4 4 2
5 5 5 4 4 5 5 4 4 3 3 2 2 2 2 2 1 1 2 2 1 1 0 1 1 1 1 1 2 1 2 2 2 2 2 2 2 2 2 3 4 4 4
6 6 5 4 4 4 4 4 4 3 2 2 2 2 2 1 1 2 1 1 1 1 1 1 1 1 1 1 1 1 1 2 2 2 2 3 3 2 2 2 2 3 4
6 6 5 5 4 4 4 4 3 3 2 2 2 2 1 1 1 1 1 1 1 1 1 1 1 1 1 1 1 2 1 2 1 2 1 2 3 3 3 2 2 2 3
5 5 5 4 3 3 3 3 2 2 2 2 2 2 1 1 1 1 0 1 1 1 1 1 1 1 1 2 2 2 2 1 1 2 2 2 2 2 3 3 3 3 3
5 5 4 4 3 3 3 3 2 2 1 2 2 1 1 1 1 1 1 1 1 1 1 1 1 1 1 1 2 2 2 2 2 2 3 3 3 3 3 3 3 3 3
6 5 4 4 4 3 3 2 2 1 2 1 1 1 0 1 1 1 1 0 0 0 1 1 1 1 1 1 1 2 2 2 2 2 3 3 3 4 4 3 3 4 4
6 5 4 4 4 4 3 2 2 2 1 1 1 1 1 1 1 1 1 1 0 0 1 1 2 2 1 1 1 2 2 2 2 2 2 2 3 4 4 4 4 4 4
5 5 5 4 4 4 3 3 3 2 2 1 2 2 2 1 1 2 1 0 0 1 1 1 1 2 1 3 2 3 3 3 3 3 3 3 2 1 2 3 4 5 5
4 4 4 4 4 3 3 3 3 2 2 2 3 2 2 2 2 2 2 1 1 1 1 2 2 1 1 2 1 3 4 3 3 3 4 4 2 2 3 3 5 5 6
3 4 4 4 4 4 4 3 3 3 3 2 3 3 2 2 2 2 2 2 1 1 1 1 1 1 0 1 1 3 4 4 4 4 4 4 4 4 4 5 4 5 5
4 4 4 4 5 4 4 3 3 3 3 3 3 2 1 1 1 1 1 2 1 1 2 1 1 2 1 0 2 4 4 3 3 4 4 4 4 3 4 5 5 6 5
5 4 4 5 5 4 4 3 4 4 3 3 2 2 1 1 1 1 1 1 1 2 2 1 2 2 2 0 1 4 4 3 3 3 3 2 3 3 4 5 6 6 6
5 5 4 4 4 4 3 3 3 3 2 2 1 1 1 1 0 1 1 1 2 2 2 2 2 2 2 1 1 3 4 4 4 4 3 2 1 3 5 6 6 6 7
5 5 4 4 4 3 3 3 3 2 2 1 1 1 1 1 1 1 1 1 2 2 2 2 2 1 1 1 0 1 4 6 5 5 4 2 1 3 5 5 5 7 8
5 4 4 4 4 3 2 2 2 2 1 1 1 1 1 2 2 1 1 1 2 2 2 2 2 2 1 0 2 3 4 5 5 4 3 4 4 5 5 6 7 7 5
5 4 4 4 4 3 3 2 2 1 1 1 1 1 1 1 1 2 1 2 2 2 3 3 3 3 2 3 3 2 2 4 4 4 3 5 5 5 5 4 4 4 4
4 4 3 4 4 3 3 2 2 1 1 1 1 1 1 1 1 1 2 2 3 3 3 4 4 4 3 4 5 5 5 5 4 5 4 3 3 3 3 3 3 3 3
4 4 3 3 3 3 2 2 2 1 1 1 1 1 1 1 1 1 1 3 2 1 1 3 4 3 3 3 4 5 6 5 5 5 4 3 3 4 4 4 3 3 3
Wind_Direction
162 160 160 156 149 144 140 131 105 103 118 105 104 97 99 89 76 69 62 56 48 54 31 31 69 43 66 51 47 25 106 19 325 261 179 160 150 125 131 79 16 102 166
158 161 165 164 160 158 162 165 166 145 170 116 105 74 54 80 82 67 73 63 57 35 49 42 29 59 74 78 53 25 336 29 17 314 299 188 158 173 130 128 160 17 290
170 166 171 172 172 170 174 167 169 169 186 192 182 146 154 162 123 103 100 71 54 52 34 33 18 35 33 62 35 18 359 335 352 352 323 313 8 5 149 145 107 10 351
179 172 174 176 181 179 170 170 177 177 184 196 200 200 195 139 76 118 92 90 78 59 51 29 28 10 25 53 325 48 345 322 325 72 340 337 348 304 263 181 158 177 278
184 178 177 174 179 174 172 168 171 179 188 198 192 213 217 198 174 160 125 194 127 110 342 4 0 350 6 33 2 354 331 331 333 330 307 278 244 265 284 299 290 238 220
184 181 178 176 180 177 177 170 164 179 192 198 199 215 227 238 252 245 202 216 169 175 58 310 328 310 351 13 317 315 333 335 333 315 309 306 302 308 302 289 285 291 283
182 181 181 183 184 180 182 181 173 186 195 197 207 213 226 226 227 243 224 265 267 237 56 355 345 339 356 334 295 272 322 322 316 306 312 318 320 321 309 299 303 298 281
171 169 171 177 182 180 184 184 175 186 192 194 200 214 225 235 231 227 268 259 281 322 30 346 326 333 319 313 304 294 295 313 309 317 318 304 322 311 313 309 305 294 283
154 156 159 164 181 181 181 183 179 180 189 188 187 191 212 248 271 242 244 258 276 274 216 248 254 282 302 313 286 318 331 321 301 301 289 296 312 298 302 301 302 302 301
147 151 153 161 178 178 171 175 184 180 185 183 202 179 188 204 232 251 275 296 287 290 255 246 264 288 302 309 288 279 303 288 299 311 331 314 316 313 297 297 296 298 299
147 147 150 160 170 171 166 171 181 179 176 180 189 209 207 191 205 229 250 245 246 229 235 235 274 300 305 298 291 299 300 288 308 307 314 313 316 308 303 297 289 286 287
145 143 143 148 154 155 153 162 174 178 181 181 194 198 201 229 225 206 258 256 230 223 212 215 231 266 284 291 287 293 298 295 309 314 313 309 301 299 303 305 299 297 287
136 131 124 125 130 129 131 139 158 176 170 166 178 176 200 245 273 301 306 285 246 220 209 205 227 252 275 288 286 285 276 286 301 310 307 305 307 305 311 304 308 298 287
138 131 128 124 116 109 112 124 129 120 108 108 121 109 69 339 338 2 334 317 273 238 226 220 234 246 254 267 284 283 282 288 293 294 292 301 305 307 307 301 303 303 296
141 137 135 125 121 112 105 98 91 80 82 100 83 64 46 41 28 28 27 33 352 287 268 254 251 253 241 278 278 267 265 276 281 285 293 307 333 343 326 321 324 316 300
144 139 134 127 119 113 107 100 91 89 89 86 75 61 46 44 33 14 24 6 301 299 290 282 267 259 271 63 22 305 279 273 275 280 286 285 269 284 256 290 305 308 298
143 140 134 127 121 114 105 101 91 89 88 79 63 51 30 22 17 2 2 342 299 278 265 265 260 257 42 69 23 309 285 283 286 286 288 291 314 292 291 252 236 252 256
140 135 130 126 117 107 103 97 92 85 78 69 63 47 26 16 10 356 344 323 303 282 267 258 260 260 247 104 269 288 266 275 284 289 288 291 301 310 311 296 288 282 271
131 125 128 122 115 112 109 107 96 80 67 50 43 36 26 26 6 346 324 315 311 295 280 273 275 273 279 45 276 280 262 262 276 285 292 290 290 349 322 290 288 288 284
128 126 124 119 116 113 115 116 97 80 61 46 37 34 32 39 8 328 304 311 296 283 279 300 292 284 286 307 298 290 276 280 284 283 284 304 310 332 317 292 291 291 296
122 120 115 107 106 111 114 106 89 75 60 57 31 24 32 17 356 340 311 298 294 307 294 292 284 287 297 270 274 294 292 296 290 290 288 309 35 304 299 291 289 293 294
122 119 114 106 105 111 118 108 89 71 56 50 33 20 5 332 40 20 334 317 299 276 267 272 281 278 277 297 222 248 277 295 291 292 298 322 323 283 281 283 290 286 282
121 120 117 113 107 108 110 102 87 83 71 41 31 12 358 347 357 352 347 311 299 302 315 307 311 324 333 54 189 229 252 267 275 295 318 307 276 266 258 258 271 272 275
122 120 117 111 100 90 82 85 95 94 81 37 14 352 345 356 12 337 340 335 329 320 321 323 324 324 329 340 337 302 264 240 251 275 265 249 251 261 282 285 261 269 289
125 124 118 109 100 92 88 88 88 75 23 2 356 337 353 6 344 340 352 328 352 346 319 322 322 321 326 359 352 327 322 322 327 305 282 280 283 284 285 293 301 297 297
127 124 115 110 108 102 91 80 78 64 340 322 319 321 328 352 320 326 348 26 350 27 303 313 311 335 357 344 332 326 322 315 312 296 286 290 293 299 303 304 306 302 300